Weather History for Glendive, MT

Change the Weather History Date:

Monday, October 1, 2012

  Actual Average Record
Temperature  
Mean Temperature 51 °F -  
Max Temperature 69 °F 62 °F 91 °F (2005)
Min Temperature 33 °F 35 °F 19 °F (2004)
Degree Days  
Heating Degree Days 14    
Growing Degree Days 1 (Base 50)    
Moisture  
Dew Point 35 °F    
Average Humidity 55    
Maximum Humidity 93    
Minimum Humidity 25    
Precipitation  
Precipitation 0.00 in - - ()
Sea Level Pressure  
Sea Level Pressure 30.12 in    
Wind  
Wind Speed 9 mph (SSW)    
Max Wind Speed 18 mph    
Max Gust Speed 22 mph    
Visibility 10 miles    
Events      
Averages and records for this station are not official NWS values.
T = Trace of Precipitation, MM = Missing Value Source: NWS Daily Summary

Daily Weather History Graph

Daily Weather History Graph

Search for Another Location

Airport:

Trip Planner

Search our weather history database for the weather conditions in past years. The results will help you decide how hot, cold, wet, or windy it might be!

Date:

Astronomy

Oct. 01, 2012 Rise Set
Actual Time 6:58 AM MDT 6:37 PM MDT
Civil Twilight 6:28 AM MDT 7:08 PM MDT
Nautical Twilight 5:52 AM MDT 7:43 PM MDT
Astronomical Twilight 5:16 AM MDT 8:19 PM MDT
Moon 7:05 PM MDT (10/1) 8:40 AM MDT (10/1)
Length of Visible Light 12h 39m
Length of Day
11h 38m
Full, 97% of the Moon is Illuminated
Oct 1
Full
Oct 8
Last Quarter
Oct 15
New
Oct 21
First Quarter
Oct 29
Full

Hourly Weather History & Observations

Time (MDT) Temp. Windchill Dew Point Humidity Pressure Visibility Wind Dir Wind Speed Gust Speed Precip Events Conditions
12:15 AM 44.6 °F 39.2 °F 42.8 °F 93% 30.27 in 10.0 mi NNW 10.4 mph - N/A   Clear
12:35 AM 44.6 °F 39.2 °F 41.0 °F 87% 30.28 in 10.0 mi NW 10.4 mph - N/A   Clear
12:55 AM 44.6 °F 39.2 °F 41.0 °F 87% 30.28 in 10.0 mi NW 10.4 mph - N/A   Clear
1:15 AM 44.6 °F 39.2 °F 39.2 °F 81% 30.28 in 10.0 mi NW 10.4 mph - N/A   Clear
1:35 AM 44.6 °F 39.2 °F 41.0 °F 87% 30.28 in 10.0 mi NW 10.4 mph - N/A   Clear
2:35 AM 41.0 °F 35.8 °F 37.4 °F 87% 30.29 in 10.0 mi West 8.1 mph - N/A   Clear
2:55 AM 41.0 °F 35.2 °F 37.4 °F 87% 30.29 in 10.0 mi WNW 9.2 mph - N/A   Clear
3:15 AM 39.2 °F 34.2 °F 35.6 °F 87% 30.29 in 10.0 mi WNW 6.9 mph - N/A   Clear
3:35 AM 37.4 °F 33.8 °F 35.6 °F 93% 30.30 in 10.0 mi WNW 4.6 mph - N/A   Clear
3:55 AM 39.2 °F 35.0 °F 35.6 °F 87% 30.30 in 10.0 mi NW 5.8 mph - N/A   Clear
4:15 AM 37.4 °F 31.4 °F 33.8 °F 87% 30.29 in 10.0 mi WNW 8.1 mph - N/A   Clear
4:35 AM 37.4 °F 32.8 °F 33.8 °F 87% 30.29 in 10.0 mi WNW 5.8 mph - N/A   Clear
4:55 AM 39.2 °F 35.9 °F 35.6 °F 87% 30.29 in 10.0 mi NW 4.6 mph - N/A   Clear
5:15 AM 39.2 °F - 35.6 °F 87% 30.30 in 10.0 mi Calm Calm - N/A   Clear
5:35 AM 35.6 °F 30.7 °F 32.0 °F 87% 30.30 in 10.0 mi South 5.8 mph - N/A   Clear
5:55 AM 35.6 °F 31.7 °F 33.8 °F 93% 30.30 in 10.0 mi SSW 4.6 mph - N/A   Clear
6:15 AM 35.6 °F 30.7 °F 33.8 °F 93% 30.29 in 10.0 mi WSW 5.8 mph - N/A   Clear
6:35 AM 35.6 °F 29.9 °F 30.2 °F 81% 30.29 in 10.0 mi WSW 6.9 mph - N/A   Clear
6:55 AM 33.8 °F 29.6 °F 30.2 °F 87% 30.29 in 10.0 mi West 4.6 mph - N/A   Clear
7:15 AM 33.8 °F 28.6 °F 30.2 °F 87% 30.30 in 10.0 mi SW 5.8 mph - N/A   Clear
7:35 AM 35.6 °F 29.9 °F 32.0 °F 87% 30.30 in 10.0 mi SW 6.9 mph - N/A   Clear
7:55 AM 39.2 °F 35.0 °F 35.6 °F 87% 30.30 in 10.0 mi SW 5.8 mph - N/A   Clear
8:15 AM 42.8 °F 40.1 °F 37.4 °F 81% 30.30 in 10.0 mi WSW 4.6 mph - N/A   Clear
8:55 AM 44.6 °F - 39.2 °F 81% 30.29 in 10.0 mi Calm Calm - N/A   Clear
9:15 AM 46.4 °F 45.2 °F 39.2 °F 76% 30.28 in 10.0 mi SSE 3.5 mph - N/A   Clear
9:35 AM 46.4 °F 44.3 °F 39.2 °F 76% 30.28 in 10.0 mi SSE 4.6 mph - N/A   Clear
9:55 AM 48.2 °F - 41.0 °F 76% 30.28 in 10.0 mi South 4.6 mph - N/A   Clear
10:15 AM 53.6 °F - 42.8 °F 67% 30.28 in 10.0 mi South 5.8 mph - N/A   Clear
10:35 AM 55.4 °F - 42.8 °F 63% 30.27 in 10.0 mi South 6.9 mph - N/A   Clear
10:55 AM 55.4 °F - 42.8 °F 63% 30.26 in 10.0 mi SE 10.4 mph - N/A   Clear
11:15 AM 57.2 °F - 42.8 °F 59% 30.25 in 10.0 mi SE 10.4 mph - N/A   Clear
11:35 AM 60.8 °F - 39.2 °F 45% 30.23 in 10.0 mi SSE 11.5 mph - N/A   Clear
11:55 AM 60.8 °F - 37.4 °F 42% 30.23 in 10.0 mi South 10.4 mph - N/A   Clear
12:15 PM 62.6 °F - 37.4 °F 39% 30.21 in 10.0 mi South 10.4 mph 19.6 mph N/A   Clear
12:55 PM 64.4 °F - 35.6 °F 34% 30.18 in 10.0 mi South 6.9 mph 16.1 mph N/A   Clear
1:15 PM 64.4 °F - 35.6 °F 34% 30.16 in 10.0 mi SSW 10.4 mph - N/A   Clear
1:35 PM 66.2 °F - 37.4 °F 35% 30.14 in 10.0 mi SSW 9.2 mph - N/A   Clear
1:55 PM 66.2 °F - 35.6 °F 32% 30.13 in 10.0 mi South 11.5 mph 21.9 mph N/A   Clear
2:15 PM 68.0 °F - 35.6 °F 30% 30.12 in 10.0 mi South 12.7 mph 17.3 mph N/A   Clear
2:35 PM 69.8 °F - 35.6 °F 28% 30.11 in 10.0 mi SSW 10.4 mph 16.1 mph N/A   Clear
2:55 PM 69.8 °F - 35.6 °F 28% 30.09 in 10.0 mi South 10.4 mph 17.3 mph N/A   Clear
3:15 PM 69.8 °F - 35.6 °F 28% 30.07 in 10.0 mi South 13.8 mph - N/A   Clear
3:35 PM 69.8 °F - 33.8 °F 27% 30.06 in 10.0 mi South 12.7 mph 17.3 mph N/A   Clear
3:55 PM 69.8 °F - 33.8 °F 27% 30.04 in 10.0 mi South 12.7 mph 17.3 mph N/A   Clear
4:15 PM 69.8 °F - 33.8 °F 27% 30.03 in 10.0 mi South 15.0 mph 20.7 mph N/A   Clear
4:35 PM 69.8 °F - 33.8 °F 27% 30.02 in 10.0 mi South 16.1 mph - N/A   Clear
4:55 PM 69.8 °F - 32.0 °F 25% 30.00 in 10.0 mi South 15.0 mph - N/A   Clear
5:15 PM 69.8 °F - 33.8 °F 27% 29.98 in 10.0 mi South 15.0 mph - N/A   Clear
5:35 PM 69.8 °F - 33.8 °F 27% 29.97 in 10.0 mi South 15.0 mph - N/A   Clear
5:55 PM 69.8 °F - 33.8 °F 27% 29.96 in 10.0 mi South 10.4 mph - N/A   Clear
6:15 PM 66.2 °F - 33.8 °F 30% 29.95 in 10.0 mi South 9.2 mph - N/A   Clear
6:35 PM 64.4 °F - 33.8 °F 32% 29.94 in 10.0 mi South 8.1 mph - N/A   Clear
6:55 PM 62.6 °F - 33.8 °F 34% 29.94 in 10.0 mi South 9.2 mph - N/A   Clear
7:15 PM 60.8 °F - 33.8 °F 36% 29.93 in 10.0 mi SSE 8.1 mph - N/A   Clear
7:35 PM 59.0 °F - 33.8 °F 39% 29.92 in 10.0 mi South 9.2 mph - N/A   Clear
7:55 PM 60.8 °F - 33.8 °F 36% 29.91 in 10.0 mi South 10.4 mph - N/A   Clear
8:15 PM 60.8 °F - 32.0 °F 34% 29.90 in 10.0 mi South 11.5 mph - N/A   Clear
8:35 PM 59.0 °F - 32.0 °F 36% 29.89 in 10.0 mi South 10.4 mph - N/A   Clear
8:55 PM 57.2 °F - 32.0 °F 38% 29.88 in 10.0 mi South 11.5 mph - N/A   Clear
9:15 PM 60.8 °F - 32.0 °F 34% 29.86 in 10.0 mi South 13.8 mph - N/A   Clear
9:35 PM 60.8 °F - 30.2 °F 31% 29.85 in 10.0 mi South 13.8 mph - N/A   Clear
9:55 PM 60.8 °F - 30.2 °F 31% 29.84 in 10.0 mi South 15.0 mph - N/A   Clear
10:15 PM 59.0 °F - 30.2 °F 34% 29.83 in 10.0 mi South 13.8 mph - N/A   Clear
10:35 PM 59.0 °F - 30.2 °F 34% 29.82 in 10.0 mi South 15.0 mph - N/A   Clear
10:55 PM 60.8 °F - 30.2 °F 31% 29.81 in 10.0 mi South 15.0 mph - N/A   Clear
11:15 PM 59.0 °F - 30.2 °F 34% 29.80 in 10.0 mi South 15.0 mph - N/A   Clear
11:35 PM 59.0 °F - 28.4 °F 31% 29.79 in 10.0 mi South 18.4 mph - N/A   Clear
11:55 PM 57.2 °F - 28.4 °F 33% 29.77 in 10.0 mi South 16.1 mph - N/A   Clear